contact:dominique.lefevre@mio.osupytheas.fr, maurice.libes@osupytheas.fr, didier.mallarino@osupytheas.fr
Project:EMSO http://www.emso-fr.org/EMSO-France
Depth: 2436.0 m
Title:EMSO Ligure Ouest : Data MII capteur AQUADOPP
Date,Latitude,Longitude,X_East,Y_North,Z_Up,Amplitude_X,Amplitude_Y,Amplitude_Z,Batterie,SoundSpeed,Heading,Pitch,Roll,Pressure,TIS,Speed,Direction
, degrees North, degrees East, m.s-1, m.s-1,m.s-1, 1, 1, 1, Volt, m.s-1, degree, degree, degree, dbar, degree_C, m.s-1, degree
2019-06-16T15:14:04,42.805,6.029,0.052,-0.018,0.012,101.0,106.0,99.0,13.4,1505.1,325.6,-0.8,1.9,2470.538,13.27,0.055,109.1
2019-06-16T15:17:05,42.805,6.029,0.05,0.0,0.02,102.0,105.0,99.0,13.4,1505.2,328.0,-0.8,1.9,2470.395,13.29,0.05,90.0
2019-06-16T15:20:06,42.805,6.029,0.059,-0.006,-0.03,102.0,105.0,99.0,13.4,1505.2,327.4,-0.7,1.8,2470.316,13.3,0.059,95.8
2019-06-16T15:23:07,42.805,6.029,0.055,-0.021,0.002,101.0,107.0,99.0,13.4,1505.3,328.2,-0.8,1.9,2470.275,13.31,0.058,110.9
2019-06-16T15:26:08,42.805,6.029,0.038,-0.007,-0.008,101.0,105.0,100.0,13.4,1505.3,327.6,-0.7,1.8,2470.148,13.31,0.038,100.4
2019-06-16T15:29:09,42.805,6.029,0.062,0.005,0.013,102.0,108.0,99.0,13.4,1505.3,328.0,-0.7,1.9,2470.129,13.31,0.062,85.4
2019-06-16T15:32:10,42.805,6.029,0.041,-0.006,-0.01,101.0,107.0,97.0,13.4,1505.3,323.6,-0.7,1.8,2470.023,13.32,0.041,98.3
2019-06-16T15:35:11,42.805,6.029,0.076,-0.019,0.007,101.0,105.0,99.0,13.4,1505.3,325.0,-0.7,1.8,2469.994,13.32,0.078,104.0
2019-06-16T15:38:12,42.805,6.029,0.051,-0.013,0.006,100.0,107.0,99.0,13.3,1505.3,326.9,-0.7,1.9,2469.963,13.32,0.052,104.3
2019-06-16T15:41:13,42.805,6.029,0.046,-0.008,-0.018,101.0,108.0,98.0,13.3,1505.3,326.3,-0.7,1.8,2469.941,13.32,0.046,99.9
2019-06-16T15:44:14,42.805,6.029,0.051,-0.006,0.011,103.0,106.0,99.0,13.4,1505.3,324.5,-0.7,1.9,2469.901,13.32,0.051,96.7
2019-06-16T15:47:15,42.805,6.029,0.059,-0.016,0.01,102.0,104.0,98.0,13.4,1505.3,326.2,-0.8,1.9,2469.895,13.32,0.061,105.2
2019-06-16T15:50:16,42.805,6.029,0.07,-0.029,-0.016,100.0,103.0,99.0,13.4,1505.3,325.0,-0.8,1.9,2469.862,13.32,0.075,112.5
2019-06-16T15:53:17,42.805,6.029,0.05,-0.018,-0.016,101.0,107.0,98.0,13.4,1505.3,324.8,-0.8,1.9,2469.873,13.32,0.053,109.8
2019-06-16T15:56:18,42.805,6.029,0.058,-0.015,0.01,100.0,105.0,98.0,13.3,1505.3,327.5,-0.8,1.8,2469.883,13.32,0.059,104.5
2019-06-16T15:59:19,42.805,6.029,0.038,-0.015,-0.01,102.0,108.0,97.0,13.3,1505.3,325.6,-0.7,1.9,2469.85,13.32,0.04,111.5
2019-06-16T16:02:20,42.805,6.029,0.069,-0.03,0.005,101.0,107.0,99.0,13.3,1505.3,326.2,-0.7,1.8,2469.835,13.32,0.075,113.5
2019-06-16T16:05:21,42.805,6.029,0.049,-0.015,0.004,101.0,106.0,98.0,13.4,1505.3,324.3,-0.7,1.9,2469.881,13.32,0.051,107.0
2019-06-16T16:08:22,42.805,6.029,0.076,-0.018,0.025,101.0,107.0,98.0,13.4,1505.3,327.7,-0.7,1.8,2469.895,13.32,0.078,103.3
2019-06-16T16:11:23,42.805,6.029,0.055,-0.017,-0.011,102.0,106.0,98.0,13.3,1505.3,323.4,-0.8,1.8,2469.832,13.32,0.057,107.2
2019-06-16T16:14:24,42.805,6.029,0.053,-0.027,-0.015,100.0,105.0,98.0,13.4,1505.3,325.1,-0.8,1.8,2469.938,13.32,0.059,117.0
2019-06-16T16:17:25,42.805,6.029,0.053,-0.025,-0.027,100.0,105.0,99.0,13.4,1505.3,327.8,-0.7,1.9,2469.933,13.32,0.058,115.3
2019-06-16T16:20:26,42.805,6.029,0.041,-0.016,-0.014,101.0,108.0,98.0,13.3,1505.3,325.2,-0.7,1.8,2469.864,13.32,0.044,111.3
2019-06-16T16:23:27,42.805,6.029,0.06,-0.011,0.0,101.0,107.0,100.0,13.4,1505.3,326.2,-0.7,1.8,2469.866,13.32,0.06,100.4
2019-06-16T16:26:28,42.805,6.029,0.067,-0.011,-0.007,102.0,103.0,99.0,13.4,1505.3,322.9,-0.7,1.8,2469.861,13.32,0.067,99.3
2019-06-16T16:29:29,42.805,6.029,0.063,-0.007,-0.01,100.0,105.0,98.0,13.4,1505.3,326.1,-0.8,1.8,2469.897,13.32,0.063,96.3
2019-06-16T16:32:30,42.805,6.029,0.053,-0.022,0.027,100.0,105.0,99.0,13.4,1505.3,326.9,-0.7,1.9,2469.933,13.32,0.057,112.5
2019-06-16T16:35:31,42.805,6.029,0.06,-0.025,0.007,103.0,103.0,98.0,13.4,1505.3,323.6,-0.7,1.8,2469.936,13.32,0.064,112.6
2019-06-16T16:38:32,42.805,6.029,0.056,-0.019,-0.003,101.0,106.0,98.0,13.4,1505.3,327.1,-0.7,1.8,2469.927,13.32,0.059,108.7
2019-06-16T16:41:33,42.805,6.029,0.071,-0.035,-0.008,100.0,104.0,98.0,13.4,1505.3,324.8,-0.8,1.9,2469.913,13.32,0.079,116.2
2019-06-16T16:44:34,42.805,6.029,0.048,-0.027,-0.02,101.0,103.0,98.0,13.4,1505.3,326.6,-0.7,1.8,2469.95,13.32,0.055,119.4
2019-06-16T16:47:35,42.805,6.029,0.039,-0.026,-0.017,100.0,105.0,98.0,13.4,1505.3,325.7,-0.8,1.8,2469.962,13.32,0.046,123.7
2019-06-16T16:50:36,42.805,6.029,0.04,-0.002,0.0,101.0,107.0,98.0,13.4,1505.3,327.9,-0.7,1.8,2469.956,13.32,0.04,92.9
2019-06-16T16:53:37,42.805,6.029,0.045,-0.014,-0.024,102.0,108.0,100.0,13.4,1505.3,323.7,-0.8,1.8,2469.937,13.32,0.047,107.3
2019-06-16T16:56:38,42.805,6.029,0.04,-0.014,0.027,101.0,105.0,98.0,13.4,1505.3,324.3,-0.8,1.8,2469.955,13.32,0.042,109.3
2019-06-16T16:59:39,42.805,6.029,0.061,0.001,-0.021,102.0,107.0,98.0,13.4,1505.3,324.2,-0.7,1.9,2469.966,13.32,0.061,89.1
2019-06-16T17:02:40,42.805,6.029,0.052,0.0,-0.008,101.0,105.0,99.0,13.4,1505.3,325.8,-0.7,1.8,2469.98,13.32,0.052,90.0
2019-06-16T17:05:41,42.805,6.029,0.073,-0.022,-0.013,101.0,104.0,98.0,13.4,1505.3,324.8,-0.7,1.9,2469.979,13.32,0.076,106.8
2019-06-16T17:08:42,42.805,6.029,0.066,-0.029,-0.02,101.0,104.0,98.0,13.4,1505.3,325.8,-0.8,1.8,2469.974,13.32,0.072,113.7
2019-06-16T17:11:43,42.805,6.029,0.057,-0.026,-0.023,102.0,104.0,98.0,13.3,1505.3,323.5,-0.7,1.9,2469.946,13.32,0.062,114.5
2019-06-16T17:14:44,42.805,6.029,0.075,-0.027,-0.005,102.0,104.0,99.0,13.4,1505.3,325.2,-0.7,1.9,2469.948,13.32,0.079,109.8
2019-06-16T17:17:45,42.805,6.029,0.05,-0.02,-0.002,101.0,106.0,98.0,13.4,1505.3,325.4,-0.8,1.9,2469.986,13.32,0.053,111.8
2019-06-16T17:20:46,42.805,6.029,0.052,-0.004,-0.012,101.0,105.0,98.0,13.3,1505.3,324.6,-0.7,1.8,2469.997,13.32,0.052,94.4
2019-06-16T17:23:47,42.805,6.029,0.071,0.0,0.012,101.0,106.0,99.0,13.3,1505.3,326.2,-0.7,1.9,2469.992,13.32,0.07,90.0
2019-06-16T17:26:48,42.805,6.029,0.037,-0.026,-0.011,102.0,106.0,98.0,13.3,1505.3,323.4,-0.7,1.8,2470.01,13.32,0.045,125.1
2019-06-16T17:29:49,42.805,6.029,0.046,0.0,-0.015,102.0,107.0,99.0,13.4,1505.3,325.7,-0.7,1.8,2470.004,13.32,0.046,90.0
2019-06-16T17:32:50,42.805,6.029,0.055,-0.009,-0.005,102.0,104.0,99.0,13.4,1505.3,327.8,-0.7,1.8,2470.01,13.32,0.055,99.3
2019-06-16T17:35:51,42.805,6.029,0.064,-0.01,-0.022,102.0,106.0,97.0,13.4,1505.3,326.7,-0.7,1.9,2469.989,13.32,0.064,98.9
2019-06-16T17:38:52,42.805,6.029,0.054,-0.003,0.011,100.0,105.0,99.0,13.3,1505.3,325.1,-0.7,1.8,2470.02,13.32,0.054,93.2
2019-06-16T17:41:53,42.805,6.029,0.046,-0.022,-0.005,102.0,104.0,98.0,13.3,1505.3,327.5,-0.7,1.8,2470.031,13.32,0.05,115.6
2019-06-16T17:44:54,42.805,6.029,0.039,-0.027,-0.01,102.0,109.0,98.0,13.3,1505.3,324.3,-0.7,1.9,2470.002,13.32,0.047,124.7
2019-06-16T17:47:55,42.805,6.029,0.046,-0.008,-0.029,102.0,105.0,98.0,13.4,1505.3,325.0,-0.7,1.9,2469.997,13.32,0.046,99.9
2019-06-16T17:50:56,42.805,6.029,0.063,-0.028,-0.019,101.0,106.0,98.0,13.3,1505.3,325.7,-0.8,1.8,2470.019,13.32,0.068,114.0
2019-06-16T17:53:57,42.805,6.029,0.055,-0.012,0.018,101.0,105.0,99.0,13.3,1505.3,325.3,-0.7,1.8,2470.033,13.32,0.056,102.3
2019-06-16T17:56:58,42.805,6.029,0.049,0.0,-0.012,100.0,106.0,98.0,13.3,1505.3,324.0,-0.7,1.8,2470.019,13.32,0.049,90.0
2019-06-16T17:59:59,42.805,6.029,0.066,-0.018,-0.016,101.0,108.0,98.0,13.3,1505.3,324.5,-0.8,1.9,2470.044,13.32,0.068,105.3
2019-06-16T18:03:00,42.805,6.029,0.038,-0.022,0.027,102.0,104.0,99.0,13.4,1505.3,328.2,-0.8,1.8,2470.077,13.32,0.043,120.1
2019-06-16T18:06:01,42.805,6.029,0.056,-0.018,-0.015,101.0,104.0,99.0,13.4,1505.3,323.6,-0.7,1.9,2470.066,13.32,0.058,107.8
2019-06-16T18:09:02,42.805,6.029,0.039,-0.013,-0.028,101.0,109.0,99.0,13.4,1505.3,327.0,-0.7,1.9,2470.066,13.32,0.041,108.4
2019-06-16T18:12:03,42.805,6.029,0.048,-0.024,-0.016,102.0,106.0,99.0,13.4,1505.3,324.2,-0.8,1.8,2470.028,13.32,0.053,116.6
2019-06-16T18:15:04,42.805,6.029,0.062,-0.039,-0.031,102.0,105.0,98.0,13.3,1505.3,323.5,-0.7,1.8,2470.072,13.32,0.073,122.2
2019-06-16T18:18:05,42.805,6.029,0.045,-0.035,-0.002,101.0,105.0,97.0,13.3,1505.3,326.4,-0.7,1.8,2470.026,13.32,0.057,127.9
2019-06-16T18:21:06,42.805,6.029,0.066,-0.016,0.002,101.0,104.0,99.0,13.3,1505.3,325.0,-0.8,1.8,2470.012,13.32,0.067,103.6
2019-06-16T18:24:07,42.805,6.029,0.051,-0.01,-0.004,102.0,107.0,99.0,13.4,1505.3,322.8,-0.7,1.8,2470.049,13.32,0.051,101.1
2019-06-16T18:27:08,42.805,6.029,0.044,0.002,0.014,102.0,106.0,98.0,13.4,1505.3,326.1,-0.7,1.9,2470.04,13.32,0.044,87.4
2019-06-16T18:30:09,42.805,6.029,0.043,-0.008,-0.029,102.0,109.0,97.0,13.4,1505.3,326.9,-0.7,1.8,2470.062,13.32,0.043,100.5
2019-06-16T18:33:10,42.805,6.029,0.067,-0.036,-0.015,101.0,104.0,98.0,13.4,1505.3,323.4,-0.7,1.9,2470.066,13.32,0.076,118.3
2019-06-16T18:36:11,42.805,6.029,0.06,-0.009,-0.031,100.0,107.0,98.0,13.4,1505.3,324.7,-0.7,1.8,2470.042,13.32,0.06,98.5
2019-06-16T18:39:12,42.805,6.029,0.062,-0.033,0.005,102.0,107.0,99.0,13.3,1505.3,327.5,-0.7,1.8,2470.1,13.32,0.07,118.0
2019-06-16T18:42:13,42.805,6.029,0.051,-0.025,-0.014,101.0,113.0,99.0,13.4,1505.3,327.2,-0.7,1.8,2470.064,13.32,0.056,116.1
2019-06-16T18:45:14,42.805,6.029,0.06,-0.004,-0.027,101.0,108.0,98.0,13.4,1505.3,323.1,-0.7,1.8,2470.034,13.32,0.06,93.8
2019-06-16T18:48:15,42.805,6.029,0.055,-0.011,-0.01,102.0,108.0,98.0,13.4,1505.3,326.2,-0.7,1.8,2470.049,13.32,0.056,101.3
2019-06-16T18:51:16,42.805,6.029,0.053,-0.008,-0.026,100.0,106.0,99.0,13.4,1505.3,328.2,-0.7,1.8,2470.105,13.32,0.053,98.6
2019-06-16T18:54:17,42.805,6.029,0.059,-0.007,-0.01,101.0,105.0,99.0,13.3,1505.3,328.1,-0.7,1.9,2470.016,13.32,0.059,96.8
2019-06-16T18:57:18,42.805,6.029,0.037,-0.011,-0.008,103.0,104.0,98.0,13.4,1505.3,324.7,-0.7,1.8,2470.053,13.32,0.038,106.6
2019-06-16T19:00:19,42.805,6.029,0.05,-0.006,-0.006,101.0,107.0,98.0,13.4,1505.3,326.3,-0.7,1.8,2470.06,13.32,0.05,96.8
2019-06-16T19:03:20,42.805,6.029,0.06,-0.015,-0.006,101.0,107.0,98.0,13.3,1505.3,325.9,-0.7,1.8,2470.063,13.32,0.061,104.0
2019-06-16T19:06:21,42.805,6.029,0.068,-0.011,0.002,102.0,105.0,97.0,13.4,1505.3,327.5,-0.7,1.8,2470.109,13.32,0.068,99.2
2019-06-16T19:09:22,42.805,6.029,0.047,-0.004,-0.039,102.0,106.0,99.0,13.4,1505.3,323.8,-0.8,1.8,2470.074,13.32,0.047,94.9
2019-06-16T19:12:23,42.805,6.029,0.045,-0.023,-0.018,103.0,107.0,99.0,13.4,1505.3,326.5,-0.7,1.9,2470.102,13.32,0.05,117.1
2019-06-16T19:15:24,42.805,6.029,0.019,0.0,-0.011,102.0,108.0,98.0,13.3,1505.3,326.8,-0.7,1.8,2470.083,13.32,0.019,90.0
2019-06-16T19:18:25,42.805,6.029,0.031,-0.006,-0.008,102.0,107.0,98.0,13.4,1505.3,325.4,-0.7,1.9,2470.093,13.32,0.031,101.0
2019-06-16T19:21:26,42.805,6.029,0.061,-0.012,-0.031,102.0,108.0,98.0,13.4,1505.3,326.6,-0.7,1.9,2470.094,13.32,0.062,101.1
2019-06-16T19:24:27,42.805,6.029,0.044,0.013,-0.014,102.0,106.0,98.0,13.4,1505.3,324.8,-0.7,1.8,2470.045,13.32,0.045,73.5
2019-06-16T19:27:28,42.805,6.029,0.042,0.001,-0.015,103.0,109.0,97.0,13.4,1505.3,323.9,-0.7,1.8,2469.993,13.32,0.042,88.6
2019-06-16T19:30:29,42.805,6.029,0.064,-0.019,-0.014,102.0,105.0,98.0,13.3,1505.3,326.3,-0.7,1.9,2470.057,13.32,0.066,106.5
2019-06-16T19:33:30,42.805,6.029,0.037,-0.015,-0.024,101.0,106.0,99.0,13.4,1505.3,326.0,-0.7,1.8,2470.077,13.32,0.039,112.1
2019-06-16T19:36:31,42.805,6.029,0.065,-0.024,0.002,103.0,108.0,99.0,13.4,1505.3,326.7,-0.7,1.8,2470.054,13.32,0.069,110.3
2019-06-16T19:39:32,42.805,6.029,0.024,-0.001,-0.002,101.0,105.0,98.0,13.4,1505.3,324.4,-0.7,1.9,2470.062,13.32,0.024,92.4
2019-06-16T19:42:33,42.805,6.029,0.051,-0.031,0.006,102.0,106.0,99.0,13.4,1505.3,328.1,-0.7,1.9,2470.116,13.32,0.059,121.3
2019-06-16T19:45:34,42.805,6.029,0.064,-0.006,-0.017,102.0,106.0,99.0,13.4,1505.3,324.2,-0.7,1.9,2470.079,13.32,0.064,95.4
2019-06-16T19:48:35,42.805,6.029,0.069,-0.021,-0.022,100.0,104.0,98.0,13.3,1505.3,323.7,-0.7,1.8,2470.067,13.32,0.072,106.9
2019-06-16T19:51:36,42.805,6.029,0.04,-0.003,0.015,102.0,107.0,99.0,13.4,1505.3,324.4,-0.7,1.9,2470.091,13.32,0.04,94.3
2019-06-16T19:54:37,42.805,6.029,0.044,-0.046,-0.021,103.0,108.0,98.0,13.4,1505.3,328.2,-0.7,1.8,2470.103,13.32,0.063,136.3
2019-06-16T19:57:38,42.805,6.029,0.032,-0.013,-0.01,101.0,108.0,98.0,13.4,1505.3,323.6,-0.7,1.9,2470.058,13.32,0.034,112.1
2019-06-16T20:00:39,42.805,6.029,0.031,-0.014,-0.04,102.0,105.0,100.0,13.4,1505.3,325.0,-0.8,1.9,2470.02,13.32,0.034,114.3
2019-06-16T20:03:40,42.805,6.029,0.046,-0.009,-0.002,101.0,106.0,99.0,13.4,1505.3,324.8,-0.8,1.8,2470.116,13.32,0.046,101.1
2019-06-16T20:06:41,42.805,6.029,0.05,-0.015,-0.004,103.0,106.0,98.0,13.4,1505.3,327.0,-0.7,1.8,2470.09,13.32,0.052,106.7
2019-06-16T20:09:42,42.805,6.029,0.052,-0.011,-0.023,102.0,108.0,99.0,13.4,1505.3,323.2,-0.7,1.9,2470.069,13.32,0.053,101.9
2019-06-16T20:12:43,42.805,6.029,0.061,-0.003,-0.014,101.0,107.0,99.0,13.4,1505.3,325.5,-0.7,1.9,2470.075,13.32,0.061,92.8
2019-06-16T20:15:44,42.805,6.029,0.047,0.0,-0.02,103.0,106.0,99.0,13.4,1505.3,326.8,-0.7,1.8,2470.018,13.32,0.047,90.0
2019-06-16T20:18:45,42.805,6.029,0.049,-0.01,-0.015,102.0,105.0,99.0,13.3,1505.3,324.6,-0.7,1.8,2470.037,13.32,0.05,101.5
2019-06-16T20:21:46,42.805,6.029,0.033,-0.027,-0.016,102.0,105.0,100.0,13.4,1505.3,328.0,-0.8,1.8,2470.097,13.32,0.042,129.3
2019-06-16T20:24:47,42.805,6.029,0.06,-0.013,0.0,101.0,106.0,98.0,13.4,1505.3,325.2,-0.8,1.8,2470.077,13.32,0.061,102.2
2019-06-16T20:27:48,42.805,6.029,0.03,-0.01,-0.011,100.0,108.0,98.0,13.4,1505.3,326.4,-0.7,1.8,2470.093,13.32,0.031,108.4
2019-06-16T20:30:49,42.805,6.029,0.049,-0.004,-0.018,103.0,106.0,98.0,13.4,1505.3,327.1,-0.7,1.8,2470.025,13.32,0.049,94.7
2019-06-16T20:33:50,42.805,6.029,0.054,-0.014,-0.023,103.0,105.0,100.0,13.3,1505.3,324.1,-0.7,1.8,2470.043,13.32,0.055,104.5
2019-06-16T20:36:51,42.805,6.029,0.042,-0.023,-0.039,101.0,106.0,98.0,13.3,1505.3,327.8,-0.7,1.9,2470.057,13.32,0.047,118.7
2019-06-16T20:39:52,42.805,6.029,0.033,-0.012,-0.006,103.0,107.0,97.0,13.4,1505.3,327.9,-0.7,1.8,2470.023,13.32,0.035,110.0
2019-06-16T20:42:53,42.805,6.029,0.051,0.006,-0.03,102.0,107.0,98.0,13.4,1505.3,326.4,-0.7,1.9,2470.037,13.32,0.051,83.3
2019-06-16T20:45:54,42.805,6.029,0.049,-0.022,-0.038,102.0,108.0,99.0,13.3,1505.3,325.9,-0.8,1.8,2470.041,13.32,0.053,114.2
2019-06-16T20:48:55,42.805,6.029,0.053,-0.014,-0.002,101.0,107.0,99.0,13.3,1505.3,326.9,-0.7,1.8,2470.043,13.32,0.054,104.8
2019-06-16T20:51:56,42.805,6.029,0.051,-0.032,-0.045,103.0,105.0,100.0,13.4,1505.3,325.4,-0.7,1.8,2470.06,13.32,0.06,122.1
2019-06-16T20:54:57,42.805,6.029,0.042,-0.014,-0.047,101.0,109.0,99.0,13.4,1505.3,327.7,-0.8,1.9,2470.072,13.32,0.044,108.4
2019-06-16T20:57:58,42.805,6.029,0.059,-0.008,-0.03,103.0,106.0,98.0,13.4,1505.3,327.5,-0.7,1.8,2470.09,13.32,0.059,97.7
2019-06-16T21:00:59,42.805,6.029,0.058,0.008,0.0,103.0,107.0,98.0,13.3,1505.3,324.4,-0.7,1.8,2470.021,13.32,0.058,82.2
2019-06-16T21:04:00,42.805,6.029,0.059,-0.022,-0.002,102.0,105.0,99.0,13.4,1505.3,326.6,-0.7,1.8,2470.038,13.32,0.062,110.4
2019-06-16T21:07:01,42.805,6.029,0.038,-0.013,-0.002,102.0,109.0,99.0,13.3,1505.3,324.3,-0.7,1.8,2470.042,13.32,0.04,108.9
2019-06-16T21:10:02,42.805,6.029,0.059,-0.018,0.024,102.0,108.0,99.0,13.4,1505.3,328.0,-0.7,1.8,2470.086,13.32,0.061,107.0
2019-06-16T21:13:03,42.805,6.029,0.037,-0.026,0.0,103.0,108.0,99.0,13.3,1505.3,326.1,-0.7,1.8,2470.075,13.32,0.045,125.1
2019-06-16T21:16:04,42.805,6.029,0.047,-0.016,-0.003,100.0,107.0,99.0,13.4,1505.3,324.6,-0.7,1.8,2470.097,13.32,0.049,108.8
2019-06-16T21:19:05,42.805,6.029,0.071,-0.009,0.002,102.0,106.0,99.0,13.4,1505.3,326.3,-0.7,1.8,2470.04,13.32,0.071,97.2
2019-06-16T21:22:06,42.805,6.029,0.048,-0.018,0.004,102.0,107.0,99.0,13.3,1505.3,326.3,-0.7,1.9,2470.013,13.32,0.051,110.6
2019-06-16T21:25:07,42.805,6.029,0.034,-0.008,-0.001,102.0,107.0,98.0,13.4,1505.3,326.4,-0.8,1.9,2469.995,13.32,0.034,103.2
2019-06-16T21:28:08,42.805,6.029,0.047,-0.021,-0.035,101.0,106.0,99.0,13.3,1505.3,324.5,-0.7,1.8,2470.013,13.32,0.051,114.1
2019-06-16T21:31:09,42.805,6.029,0.025,-0.025,-0.015,102.0,107.0,99.0,13.3,1505.3,327.5,-0.7,1.9,2470.013,13.32,0.035,135.0
2019-06-16T21:34:10,42.805,6.029,0.051,-0.002,-0.01,103.0,108.0,98.0,13.3,1505.3,326.3,-0.7,1.8,2470.068,13.32,0.051,92.2
2019-06-16T21:37:11,42.805,6.029,0.056,-0.002,-0.012,102.0,108.0,99.0,13.4,1505.3,326.6,-0.7,1.9,2469.993,13.32,0.056,92.0
2019-06-16T21:40:12,42.805,6.029,0.039,0.002,-0.009,102.0,109.0,98.0,13.4,1505.3,324.5,-0.7,1.8,2470.015,13.32,0.039,87.1
2019-06-16T21:43:13,42.805,6.029,0.054,0.005,0.0,101.0,109.0,99.0,13.3,1505.3,327.9,-0.7,1.9,2470.04,13.32,0.054,84.7
2019-06-16T21:46:14,42.805,6.029,0.039,-0.016,-0.003,101.0,108.0,99.0,13.3,1505.3,325.3,-0.7,1.8,2470.015,13.32,0.042,112.3
2019-06-16T21:49:15,42.805,6.029,0.019,-0.009,-0.032,103.0,107.0,100.0,13.4,1505.3,327.5,-0.7,1.8,2470.03,13.32,0.021,115.3
2019-06-16T21:52:16,42.805,6.029,0.046,-0.002,-0.012,101.0,107.0,99.0,13.4,1505.3,323.3,-0.7,1.9,2470.032,13.32,0.046,92.5
2019-06-16T21:55:17,42.805,6.029,0.05,-0.008,-0.007,103.0,109.0,99.0,13.4,1505.3,324.1,-0.8,1.8,2469.988,13.32,0.05,99.1
2019-06-16T21:58:18,42.805,6.029,0.039,-0.014,-0.032,103.0,111.0,99.0,13.3,1505.3,326.1,-0.8,1.8,2470.043,13.32,0.041,109.7
2019-06-16T22:01:19,42.805,6.029,0.058,-0.018,-0.03,102.0,108.0,98.0,13.3,1505.3,325.3,-0.7,1.8,2469.99,13.32,0.06,107.2
2019-06-16T22:04:20,42.805,6.029,0.037,-0.041,-0.02,102.0,109.0,99.0,13.3,1505.3,326.7,-0.7,1.8,2470.011,13.32,0.055,137.9
2019-06-16T22:07:21,42.805,6.029,0.016,-0.031,-0.03,102.0,107.0,99.0,13.3,1505.3,328.1,-0.7,1.8,2470.037,13.32,0.034,152.7
2019-06-16T22:10:22,42.805,6.029,0.049,-0.001,-0.008,102.0,109.0,100.0,13.3,1505.3,324.0,-0.7,1.8,2470.024,13.32,0.049,91.2
2019-06-16T22:13:23,42.805,6.029,0.022,0.017,-0.038,102.0,112.0,98.0,13.3,1505.3,324.7,-0.8,1.8,2470.035,13.32,0.027,52.3
2019-06-16T22:16:24,42.805,6.029,0.048,-0.021,0.01,101.0,109.0,100.0,13.4,1505.3,325.0,-0.8,1.9,2470.015,13.32,0.052,113.6
2019-06-16T22:19:25,42.805,6.029,0.047,-0.017,-0.012,102.0,110.0,98.0,13.4,1505.3,326.7,-0.7,1.8,2470.001,13.32,0.049,109.9
2019-06-16T22:22:26,42.805,6.029,0.045,-0.01,-0.006,102.0,110.0,99.0,13.4,1505.3,328.1,-0.8,1.8,2470.02,13.32,0.046,102.5
2019-06-16T22:25:27,42.805,6.029,0.051,-0.006,-0.018,102.0,111.0,99.0,13.3,1505.3,324.5,-0.7,1.8,2470.019,13.32,0.051,96.7
2019-06-16T22:28:28,42.805,6.029,0.066,-0.013,-0.025,102.0,112.0,98.0,13.4,1505.3,324.7,-0.7,1.8,2470.059,13.32,0.067,101.1
2019-06-16T22:31:29,42.805,6.029,0.051,-0.03,-0.015,102.0,108.0,99.0,13.3,1505.3,326.2,-0.7,1.9,2469.968,13.32,0.059,120.5
2019-06-16T22:34:30,42.805,6.029,0.036,0.019,0.026,101.0,111.0,99.0,13.3,1505.3,325.4,-0.7,1.8,2470.009,13.32,0.04,62.2
2019-06-16T22:37:31,42.805,6.029,0.05,-0.011,-0.039,102.0,112.0,98.0,13.4,1505.3,324.9,-0.7,1.8,2469.996,13.32,0.051,102.4
2019-06-16T22:40:32,42.805,6.029,0.04,-0.001,-0.043,102.0,108.0,98.0,13.4,1505.3,324.5,-0.7,1.8,2469.997,13.32,0.04,91.4
2019-06-16T22:43:33,42.805,6.029,0.023,0.005,-0.011,101.0,112.0,99.0,13.3,1505.3,324.8,-0.7,1.8,2469.991,13.32,0.023,77.7
2019-06-16T22:46:34,42.805,6.029,0.044,0.008,-0.034,102.0,113.0,98.0,13.4,1505.3,324.7,-0.7,1.8,2470.033,13.32,0.044,79.7
2019-06-16T22:49:35,42.805,6.029,0.048,0.017,-0.037,102.0,110.0,99.0,13.4,1505.3,325.3,-0.7,1.8,2470.016,13.32,0.05,70.5
2019-06-16T22:52:36,42.805,6.029,0.029,0.011,-0.04,102.0,110.0,99.0,13.4,1505.3,325.7,-0.7,1.8,2469.984,13.32,0.031,69.2
2019-06-16T22:55:37,42.805,6.029,0.054,-0.005,-0.019,102.0,112.0,99.0,13.4,1505.3,328.2,-0.7,1.8,2469.988,13.32,0.054,95.3
2019-06-16T22:58:38,42.805,6.029,0.036,-0.007,-0.026,102.0,112.0,97.0,13.4,1505.3,326.4,-0.7,1.8,2470.002,13.32,0.036,101.0
2019-06-16T23:01:39,42.805,6.029,0.05,0.01,-0.021,103.0,112.0,98.0,13.4,1505.3,326.7,-0.7,1.9,2469.978,13.32,0.05,78.7
2019-06-16T23:04:40,42.805,6.029,0.069,0.0,-0.021,99.0,109.0,98.0,13.4,1505.3,324.2,-0.7,1.8,2470.021,13.32,0.068,90.0
2019-06-16T23:07:41,42.805,6.029,0.059,-0.007,0.002,101.0,110.0,99.0,13.4,1505.3,327.8,-0.7,1.9,2470.008,13.32,0.059,96.8
2019-06-16T23:10:42,42.805,6.029,0.035,-0.018,-0.022,102.0,114.0,99.0,13.4,1505.3,326.4,-0.7,1.8,2469.977,13.32,0.039,117.2
2019-06-16T23:13:43,42.805,6.029,0.048,-0.01,-0.033,103.0,112.0,98.0,13.4,1505.3,325.1,-0.7,1.8,2469.998,13.32,0.049,101.8
2019-06-16T23:16:44,42.805,6.029,0.038,-0.001,0.011,102.0,114.0,99.0,13.4,1505.3,326.7,-0.7,1.8,2469.949,13.32,0.038,91.5
2019-06-16T23:19:45,42.805,6.029,0.051,-0.002,-0.014,102.0,114.0,99.0,13.4,1505.3,325.2,-0.7,1.9,2469.991,13.32,0.051,92.2
2019-06-16T23:22:46,42.805,6.029,0.04,-0.014,-0.013,103.0,112.0,98.0,13.4,1505.3,327.4,-0.7,1.8,2469.985,13.32,0.042,109.3
2019-06-16T23:25:47,42.805,6.029,0.048,0.004,0.011,101.0,115.0,98.0,13.4,1505.3,323.3,-0.7,1.8,2469.977,13.32,0.048,85.2
2019-06-16T23:28:48,42.805,6.029,0.014,0.0,-0.017,102.0,115.0,98.0,13.4,1505.3,325.5,-0.7,1.8,2469.98,13.32,0.014,90.0
2019-06-16T23:31:49,42.805,6.029,0.042,-0.01,-0.013,102.0,115.0,99.0,13.4,1505.3,324.9,-0.7,1.8,2469.957,13.32,0.043,103.4
2019-06-16T23:34:50,42.805,6.029,0.053,0.014,-0.024,103.0,113.0,99.0,13.4,1505.3,326.8,-0.8,1.9,2469.952,13.32,0.054,75.2
2019-06-16T23:37:51,42.805,6.029,0.042,0.002,-0.026,102.0,115.0,100.0,13.4,1505.3,326.5,-0.7,1.8,2469.973,13.32,0.042,87.3
2019-06-16T23:40:52,42.805,6.029,0.042,0.014,-0.023,101.0,115.0,99.0,13.4,1505.3,325.8,-0.8,1.8,2469.948,13.32,0.044,71.6
2019-06-16T23:43:53,42.805,6.029,0.054,0.011,-0.032,102.0,114.0,98.0,13.4,1505.3,326.5,-0.7,1.8,2469.976,13.32,0.055,78.5
2019-06-16T23:46:54,42.805,6.029,0.06,0.018,-0.025,102.0,110.0,98.0,13.3,1505.3,326.3,-0.7,1.8,2469.975,13.32,0.062,73.3
2019-06-16T23:49:55,42.805,6.029,0.051,0.006,-0.034,102.0,114.0,98.0,13.4,1505.3,328.4,-0.7,1.9,2469.96,13.32,0.051,83.3
2019-06-16T23:52:56,42.805,6.029,0.027,0.009,-0.029,102.0,114.0,99.0,13.4,1505.3,323.5,-0.7,1.8,2469.957,13.32,0.028,71.6
2019-06-16T23:55:57,42.805,6.029,0.055,0.01,-0.007,102.0,119.0,99.0,13.4,1505.3,325.1,-0.8,1.8,2469.992,13.32,0.055,79.7
2019-06-16T23:58:58,42.805,6.029,0.057,0.004,-0.014,102.0,114.0,98.0,13.4,1505.3,327.7,-0.7,1.9,2469.956,13.32,0.057,86.0
